NOAA NWS Hourly Roundups by Site

Regional Weather Roundup for Topeka, KS

To Select Another Site Choose from List

Select Site:  

708
ASUS43 KTOP 161259
RWRKS

WEATHER ROUNDUP FOR KANSAS
NATIONAL WEATHER SERVICE GOODLAND KS
800 AM CDT WED OCT 16 2019

NOTE:  "FAIR" INDICATES FEW OR NO CLOUDS BELOW 12,000 FEET WITH NO
SIGNIFICANT WEATHER AND/OR OBSTRUCTIONS TO VISIBILITY.

KSZ001>006-013>018-027>032-041>047-161400-
NORTHWEST KANSAS

CITY           SKY/WX    TMP DP  RH WIND       PRES   REMARKS
GOODLAND       CLEAR     35  24  64 S12       30.17F WCI  27
HAYS           CLEAR     29  26  89 NW5       30.26S FOG
HILL CITY      CLEAR     28  23  81 W5        30.26S
RUSSELL        CLEAR     32  28  85 NW5       30.24F
$$

KSZ061>065-074>080-084>089-161400-
SOUTHWEST KANSAS

CITY           SKY/WX    TMP DP  RH WIND       PRES   REMARKS
DODGE CITY     CLEAR     33  26  75 CALM      30.24F
GARDEN CITY    CLEAR     29  23  78 NW3       30.24F
GREAT BEND     CLEAR     29  27  92 NW3       30.26S
LIBERAL        CLEAR     32  27  81 CALM      30.26S
$$

KSZ066>073-081>083-090>101-161400-
SOUTHEAST KANSAS

CITY           SKY/WX    TMP DP  RH WIND       PRES   REMARKS
CHANUTE        CLEAR     39  34  82 NW5       30.22R
COFFEYVILLE    CLEAR     39  35  86 N6        30.21S
HUTCHINSON     CLEAR     31  28  89 NW7       30.25R
MEDICINE LODGE   N/A     35  32  88 NW3       30.26R
NEWTON         CLEAR     34  31  88 NW8       30.24R
PARSONS        CLEAR     37  35  92 N5        30.23R
WICHITA INTL   CLEAR     39  32  76 NW10      30.24R WCI  32
WICHITA JABRA  CLEAR     36  32  85 NW10      30.23R WCI  28
WICHITA MCCONL CLEAR     39  30  70 N9        30.23R
WINFIELD       CLEAR     34  31  88 CALM      30.24R
$$

KSZ007>012-019>026-033>040-048>060-102>105-161400-
NORTHEAST KANSAS

CITY           SKY/WX    TMP DP  RH WIND       PRES   REMARKS
CONCORDIA      CLEAR     34  30  85 W8        30.24S
EMPORIA        CLEAR     35  34  96 NW5       30.22S
MANHATTAN      CLOUDY    40  35  83 VRB3      30.24S
OLATHE IND     CLOUDY    41  36  82 NW7       30.20R
OLATHE EXE     CLOUDY    41  36  82 N8        30.18R
SALINA         CLEAR     34  29  82 W3        30.26S
TOPEKA BILLARD CLOUDY    44  37  76 NW7       30.22R
TOPEKA FORBES  CLOUDY    44  37  76 NW9       30.21R
$$



 

View Past Reports for Topeka, KS.

Products Courtesy of NOAA-NWS
NWS Information Parsing Script by Ken True at Saratoga Weather - Script by SE Lincoln Weather.